Date String (YYYY-MM-DD hh:mm:ss) UTC,Instrument flags,Ambient pressure (hPa),Sample flow (lpm),Bypass flow (lpm),Sample temperature (°C),Ambient temperature (°C),ASC tube jacket temperature (°C),LED temperature (°C),Box temperature (°C),Sample RH (%),Span deviation,Mass concentration (μg/m³),Mass concentration (μg/m³),Mass concentration (μg/m³)
DateTimeUTC,F1_M11,P_M11,Q1_M11,Q2_M11,T1_M11,T2_M11,T3_M11,T4_M11,T5_M11,U1_M11,ZSPAN_M11,X0_M11,X2_M11,X1_M11
2022-06-17 13:00:00,,0829.0,5.00,0.00,30.9,28.7,00.0,39.1,32.0,34.7,0000.6,0017.07,0007.75,0005.14
2022-06-17 13:01:00,,0829.1,5.00,0.00,30.9,28.7,00.0,39.2,32.0,34.8,0000.5,0017.11,0007.83,0005.14
2022-06-17 13:02:00,,0829.0,5.00,0.00,30.9,28.8,00.0,39.2,32.0,34.9,0000.8,0017.24,0007.84,0005.14
2022-06-17 13:03:00,,0828.7,5.02,0.00,30.9,28.9,00.0,39.2,32.0,35.0,0000.6,0017.47,0007.91,0005.14
2022-06-17 13:04:00,,0828.6,4.99,0.00,31.0,28.9,00.0,39.3,32.1,35.0,-000.3,0016.75,0007.88,0005.12
2022-06-17 13:05:00,,0828.9,5.02,0.00,31.2,29.0,00.0,39.3,32.2,34.6,-000.5,0016.88,0007.86,0005.11
2022-06-17 13:06:00,,0828.8,4.99,0.00,31.3,29.0,00.0,39.3,32.3,34.5,-000.5,0017.44,0007.85,0005.11
2022-06-17 13:07:00,,0829.0,5.01,0.00,31.3,29.1,00.0,39.4,32.3,34.4,0000.1,0017.57,0007.82,0005.12
2022-06-17 13:08:00,,0829.1,4.99,0.00,31.3,29.1,00.0,39.4,32.3,34.4,0000.7,0017.55,0007.90,0005.11
2022-06-17 13:09:00,,0829.0,4.99,0.00,31.3,29.1,00.0,39.5,32.3,34.4,0000.1,0017.45,0007.85,0005.10
2022-06-17 13:10:00,,0828.8,5.01,0.00,31.3,28.8,00.0,39.4,32.2,34.5,0000.9,0017.51,0007.90,0005.11
2022-06-17 13:11:00,,0828.5,4.99,0.00,31.2,28.0,00.0,39.4,32.0,34.7,0000.8,0017.77,0007.89,0005.10
2022-06-17 13:12:00,,0828.8,4.99,0.00,31.1,27.6,00.0,39.4,31.9,34.9,0000.7,0017.60,0007.81,0005.08
2022-06-17 13:13:00,,0828.5,4.99,0.00,31.0,27.5,00.0,39.4,31.8,35.1,0000.7,0017.60,0007.79,0005.08
2022-06-17 13:14:00,,0828.6,5.00,0.00,31.1,27.5,00.0,39.4,31.9,35.0,0002.1,0017.44,0007.73,0005.06
2022-06-17 13:15:00,,0828.6,5.02,0.00,31.3,27.7,00.0,39.4,32.0,34.7,0002.1,0017.38,0007.74,0005.05
2022-06-17 13:16:00,,0828.6,5.00,0.00,31.4,27.8,00.0,39.4,32.0,34.5,0000.0,0017.03,0007.75,0005.04
2022-06-17 13:17:00,,0828.5,4.98,0.00,31.4,27.9,00.0,39.4,32.0,34.5,0001.5,0017.05,0007.78,0005.02
2022-06-17 13:18:00,,0828.5,5.00,0.00,31.4,28.1,00.0,39.4,32.0,34.5,0002.2,0017.45,0007.79,0004.99
2022-06-17 13:19:00,,0828.5,5.00,0.00,31.3,28.2,00.0,39.5,32.0,34.6,0002.0,0017.35,0007.74,0004.97
2022-06-17 13:20:00,,0828.5,5.00,0.00,31.3,28.3,00.0,39.5,32.0,34.7,0002.0,0017.74,0007.78,0004.97
2022-06-17 13:21:00,,0828.5,5.00,0.00,31.3,28.4,00.0,39.5,32.0,34.8,0001.4,0017.60,0007.66,0004.95
2022-06-17 13:22:00,,0828.5,5.01,0.00,31.3,28.5,00.0,39.5,32.0,34.9,0000.0,0018.13,0007.68,0004.93
2022-06-17 13:23:00,,0828.5,5.01,0.00,31.2,28.6,00.0,39.5,32.1,35.0,0000.0,0018.56,0007.76,0004.94
2022-06-17 13:24:00,,0828.4,4.99,0.00,31.3,28.7,00.0,39.6,32.2,35.0,0000.0,0018.54,0007.78,0004.93
2022-06-17 13:25:00,,0828.5,5.01,0.00,31.5,28.8,00.0,39.6,32.3,34.6,0000.6,0018.77,0007.81,0004.94
2022-06-17 13:26:00,,0828.5,4.99,0.00,31.6,28.8,00.0,39.6,32.3,34.5,0000.1,0018.79,0007.73,0004.93
2022-06-17 13:27:00,,0828.5,5.01,0.00,31.6,28.9,00.0,39.6,32.3,34.5,0000.4,0019.28,0007.80,0004.94
2022-06-17 13:28:00,,0828.5,5.00,0.00,31.6,29.0,00.0,39.7,32.3,34.6,0000.6,0019.15,0007.83,0004.95
2022-06-17 13:29:00,,0828.5,5.01,0.00,31.6,29.0,00.0,39.7,32.3,34.6,0000.0,0018.74,0007.86,0004.98
2022-06-17 13:30:00,,0828.5,5.00,0.00,31.6,29.1,00.0,39.7,32.3,34.7,0000.0,0018.67,0007.85,0005.00
2022-06-17 13:31:00,,0828.5,5.00,0.00,31.5,29.1,00.0,39.8,32.4,34.8,0000.0,0018.31,0007.81,0005.01
2022-06-17 13:32:00,,0828.5,5.00,0.00,31.5,29.2,00.0,39.8,32.4,34.9,0000.0,0018.33,0007.86,0005.02
2022-06-17 13:33:00,,0828.4,5.00,0.00,31.5,29.1,00.0,39.8,32.4,35.0,0000.0,0018.07,0007.83,0005.03
2022-06-17 13:34:00,,0828.3,4.99,0.00,31.6,28.4,00.0,39.7,32.3,35.0,0000.0,0017.97,0007.79,0005.02
2022-06-17 13:35:00,,0828.3,5.01,0.00,31.7,27.8,00.0,39.7,32.3,34.7,0000.0,0018.23,0007.87,0005.02
2022-06-17 13:36:00,,0828.4,5.00,0.00,31.7,27.6,00.0,39.6,32.2,34.8,0000.0,0018.20,0007.94,0005.03
2022-06-17 13:37:00,,0828.3,5.00,0.00,31.6,27.6,00.0,39.7,32.1,35.0,0000.0,0018.24,0008.05,0005.04
2022-06-17 13:38:00,,0828.3,5.00,0.00,31.7,27.7,00.0,39.7,32.1,35.1,0000.0,0018.08,0008.07,0005.04
2022-06-17 13:39:00,,0828.3,5.00,0.00,31.9,27.8,00.0,39.7,32.2,34.7,0000.0,0017.73,0007.98,0005.03
2022-06-17 13:40:00,,0828.3,5.01,0.00,32.0,28.0,00.0,39.7,32.2,34.5,0000.0,0017.48,0007.82,0004.99
2022-06-17 13:41:00,,0828.3,5.01,0.00,32.0,28.1,00.0,39.7,32.2,34.5,0000.0,0017.73,0007.81,0004.99
2022-06-17 13:42:00,,0828.3,4.98,0.00,32.0,28.3,00.0,39.8,32.2,34.6,0000.0,0018.36,0007.91,0004.99
2022-06-17 13:43:00,,0828.3,5.00,0.00,32.0,28.4,00.0,39.8,32.2,34.7,0000.0,0018.12,0007.84,0004.98
2022-06-17 13:44:00,,0828.4,5.01,0.00,31.9,28.5,00.0,39.9,32.2,34.8,0000.0,0017.61,0007.80,0004.99
2022-06-17 13:45:00,,0828.3,4.99,0.00,31.9,28.6,00.0,39.9,32.3,35.0,0000.0,0017.45,0007.82,0004.99
2022-06-17 13:46:00,,0828.3,5.00,0.00,31.9,28.7,00.0,39.9,32.3,35.1,0000.0,0017.55,0007.77,0004.99
2022-06-17 13:47:00,,0828.4,5.00,0.00,32.1,28.8,00.0,40.0,32.5,34.7,0000.0,0017.63,0007.72,0004.98
2022-06-17 13:48:00,,0828.4,4.99,0.00,32.3,28.9,00.0,40.0,32.5,34.5,0000.0,0017.50,0007.64,0004.97
2022-06-17 13:49:00,,0828.3,5.00,0.00,32.3,28.9,00.0,40.0,32.5,34.5,0000.0,0017.23,0007.59,0004.96
2022-06-17 13:50:00,,0828.3,5.01,0.00,32.3,29.0,00.0,40.1,32.5,34.6,0000.0,0017.10,0007.67,0004.97
2022-06-17 13:51:00,,0828.3,5.00,0.00,32.3,29.1,00.0,40.1,32.5,34.6,0000.0,0017.40,0007.87,0005.01
2022-06-17 13:52:00,,0828.3,5.00,0.00,32.3,29.1,00.0,40.2,32.6,34.8,0000.0,0017.86,0007.92,0005.01
2022-06-17 13:53:00,,0828.3,4.99,0.00,32.2,29.1,00.0,40.2,32.5,34.9,0000.0,0017.29,0007.85,0005.01
2022-06-17 13:54:00,,0828.2,5.01,0.00,32.2,28.7,00.0,40.2,32.5,35.1,0000.0,0017.68,0007.95,0005.01
2022-06-17 13:55:00,,0828.2,4.99,0.00,32.2,28.0,00.0,40.1,32.4,35.1,0000.0,0018.63,0007.94,0005.00
2022-06-17 13:56:00,,0828.2,5.00,0.00,32.4,27.7,00.0,40.1,32.5,34.8,0000.0,0018.66,0007.92,0005.00
2022-06-17 13:57:00,,0828.1,5.01,0.00,32.4,27.7,00.0,40.1,32.4,34.8,0000.0,0018.80,0007.96,0004.99
2022-06-17 13:58:00,,0828.1,4.98,0.00,32.4,27.8,00.0,40.1,32.3,35.0,0000.0,0018.85,0007.95,0004.99
2022-06-17 13:59:00,,0828.1,5.01,0.00,32.4,27.9,00.0,40.1,32.3,35.1,0000.0,0019.15,0008.05,0005.00
